PROBA 1 1 26958U 01049B 25182.89567089 .00001013 00000-0 73201-4 0 9996 2 26958 97.9488 174.9076 0056156 224.7409 134.9281 15.05343039290880 CUTE-1 1 27844U 03031E 25182.81305815 .00000251 00000-0 12839-3 0 9995 2 27844 98.6753 190.7993 0010740 119.4379 240.7873 14.24010625141809 CUBESAT XI 4 1 27848U 03031J 25182.27978616 .00000205 00000-0 10960-3 0 9996 2 27848 98.6781 190.2622 0010364 136.6371 223.5624 14.23343083141453 GENESIS 1 1 29252U 06029A 25182.77684554 .03224014 77837-5 47195-3 0 9993 2 29252 64.4845 280.5552 0020693 285.9484 170.3134 16.33393934 49893 GENESIS 2 1 31789U 07028A 25182.91859514 .00096968 00000-0 43883-3 0 9992 2 31789 64.4741 337.1872 0024181 301.1141 58.7641 15.83000552996446 APRIZESAT 4 1 35684U 09041D 25182.72267971 .00000561 00000-0 74948-4 0 9997 2 35684 98.1841 245.4214 0044334 18.9572 341.3279 14.83068136859406 APRIZESAT 3 1 35686U 09041F 25182.88592132 .00001199 00000-0 11237-3 0 9995 2 35686 98.1580 315.8419 0064541 142.2058 218.3720 14.94549621864022 PROBA 2 1 36037U 09059B 25182.51846152 .00000143 00000-0 44133-4 0 9999 2 36037 98.2380 5.9168 0011911 285.3331 74.6549 14.54567613830545 APRIZESAT 5 1 37792U 11044E 25182.72619392 .00000864 00000-0 11896-3 0 9991 2 37792 98.2307 101.5599 0054427 51.6426 308.9657 14.79999284746934 APRIZESAT 6 1 37793U 11044F 25182.72489127 .00000541 00000-0 85188-4 0 9991 2 37793 98.2586 80.8969 0044824 125.4660 300.1094 14.76107131745436 PROBA V 1 39159U 13021A 25182.87805341 .00000075 00000-0 50994-4 0 9991 2 39159 98.3210 174.5606 0005424 81.4871 278.6923 14.23492240631272 CUSAT 1 1 39266U 13055B 25182.96345834 .00037496 -32794-6 38373-3 0 9998 2 39266 80.9480 68.6553 0275969 324.8136 33.5138 15.29793086618441 APRIZESAT 7 1 39416U 13066A 25182.74845298 .00001077 00000-0 11571-3 0 9997 2 39416 97.7218 137.4374 0035394 293.8487 65.9023 14.90182024629017 APRIZESAT 8 1 39425U 13066K 25182.85112441 .00000985 00000-0 11535-3 0 9993 2 39425 97.7769 131.4985 0047007 0.3952 359.7293 14.86510111627605 BUGSAT 1 1 40014U 14033E 25182.86133576 .00003706 00000-0 22390-3 0 9992 2 40014 98.0730 250.6704 0029520 294.2369 65.5775 15.11027245602859 SAUDISAT 4 1 40016U 14033G 25182.37132851 .00000656 00000-0 94501-4 0 9990 2 40016 97.7099 336.8876 0046546 133.9852 226.5213 14.78769334594215 TABLETSAT AURORA 1 40017U 14033H 25182.89546872 .00004802 00000-0 28593-3 0 9994 2 40017 98.0712 231.8833 0012154 335.6402 24.4251 15.11681229602186 APRIZESAT 9 1 40018U 14033J 25182.89873701 .00000505 00000-0 82995-4 0 9992 2 40018 97.8572 320.8985 0065716 246.0758 113.3557 14.73496878591967 APRIZESAT 10 1 40019U 14033K 25182.85149721 .00000345 00000-0 62989-4 0 9990 2 40019 97.9201 313.7653 0078606 313.3235 46.1436 14.70251741590762 AISAT 1 40054U 14034B 25182.64699677 .00005077 00000-0 41086-3 0 9998 2 40054 98.2879 66.4554 0010020 301.8934 58.1312 15.00215788594509 CANX-4 1 40055U 14034C 25182.85697799 .00000764 00000-0 10777-3 0 9996 2 40055 98.3605 39.4983 0014155 59.0582 301.2018 14.80261079592681 CANX-5 1 40056U 14034D 25182.85917174 .00000775 00000-0 10917-3 0 9997 2 40056 98.3607 39.5238 0014160 59.2776 300.9828 14.80274918583491 TDS 1 1 40076U 14037H 25182.85305585 .00004702 00000-0 32830-3 0 9991 2 40076 98.3443 138.2921 0007820 18.5513 341.5995 15.05890272595370 TECHNOSAT 1 42829U 17042E 25182.89844331 .00002234 00000-0 17531-3 0 9998 2 42829 97.3856 350.5396 0016038 197.8464 162.2200 15.01795176434076 FLYING LAPTOP 1 42831U 17042G 25182.88491611 .00002188 00000-0 18592-3 0 9995 2 42831 97.4094 349.3605 0009928 228.0419 131.9959 14.98816995433947